Weather in Sile

Turkey     41°10′24″N   29°36′32″E
temp.,
°C
wind,
m/s
gust,
m/s
humid.,
%
clouds,
%
prec.,
mm/h
press.,
hPa
HPBL,
m
9 may, sun
sun900:00+14nne5693100 0.6 1019398
03:00+12ene798268 1.8 1021452
06:00+12ene57826 0.3 1023595
09:00+14ne77674 0.4 10251112
12:00+14ne77625 0.0 1026991
15:00+14ne776324 0.0 1027944
18:00+13ene78639 0.0 1027937
21:00+13ene89630 0.0 1027924
10 may, mon
mon1000:00+12ene89620 0.0 1027885
03:00+12ene89620 0.0 1025803
06:00+12ene910620 0.0 1025917
09:00+13ene910620 0.0 10251067
12:00+13ene910605 0.0 1025993
15:00+14ene910590 0.0 1024977
18:00+14ene1011600 0.0 1022990
21:00+13ene911610 0.0 1022929
11 may, tue
tue1100:00+13ene911610 0.0 1021903
03:00+13ene810610 0.0 1020818
06:00+13ene89620 0.0 1019837
09:00+14ene89600 0.0 1019901
12:00+14ene78590 0.0 1019875
15:00+14ene78620 0.0 1018782
18:00+14ene89640 0.0 1017711
21:00+14ene89662 0.0 1016684
12 may, wed
wed1200:00+13e68695 0.0 1015529
03:00+13e56735 0.0 1013426
06:00+13e56740 0.0 1012435
09:00+14e56715 0.0 1012502
12:00+15ene566532 0.0 1011463
15:00+15ene66660 0.0 1011413
18:00+15e7768100 0.0 1010397
21:00+14e677516 0.0 1009286
13 may, thu
thu1300:00+14ese4573100 0.0 1008164
03:00+14se126765 0.0 100886
06:00+15sse116898 0.0 100827
09:00+17wnw12650 0.0 100888
12:00+19nne33590 0.0 1008385
15:00+20nne23590 0.0 1008295
18:00+19ene46645 0.0 1008320
21:00+18se3476100 0.0 100935